Back to catalog

ATLAS 5 CENTAUR DEB

AliveHEO
NORAD 44015·DEBRIS·🇺🇸 United States

Launched Sep 17, 2014 from Cape Canaveral Space Force Station

Loading…

Next Passes (next 24 hours)

TLE

FreshSource: Space-Track

Epoch: Sep 13, 2026, 09:07 UTC

1 44015U 14055BW  26256.38028174 -.00000392  00000-0  00000+0 0  9997
2 44015  21.3008  76.2998 5089714 286.7357  24.9570  1.95143567 56282

Track ATLAS 5 CENTAUR DEB in real time with AllMySat

Download on the App Store